Location: Newport
(44.6370°N, 124.0520°W)
Time: 02:22:44
(UTC-07:00)

Vanguard 3 - All Passes

Search period start: 24 June 2018 00:00
Search period end: 04 July 2018 00:00
Orbit: 508 x 3264 km, 33.3° (Epoch: 23 June)

Date Brightness Start Highest point End Pass type
(mag) Time Alt. Az. Time Alt. Az. Time Alt. Az.
24 Jun - 03:19:29 10° SSW 03:22:58 20° SSE 03:27:41 10° ESE visible
24 Jun - 05:28:26 10° WSW 05:33:53 35° S 05:42:50 10° ESE daylight
24 Jun - 07:39:00 10° WSW 07:46:06 31° SSW 07:57:17 10° SE daylight
24 Jun - 09:52:33 10° WSW 09:59:15 17° SSW 10:07:47 10° S daylight
25 Jun - 04:15:58 10° SW 04:20:19 29° SSE 04:26:56 10° ESE visible
25 Jun - 06:25:51 10° WSW 06:31:51 33° S 06:41:31 10° SE daylight
25 Jun - 08:37:37 10° WSW 08:44:28 22° SSW 08:54:09 10° SSE daylight
26 Jun - 03:03:55 10° SSW 03:07:07 19° SSE 03:11:16 10° ESE visible
26 Jun - 05:13:05 10° WSW 05:18:00 31° S 05:25:45 10° ESE daylight
26 Jun - 07:23:49 10° WSW 07:30:01 26° SSW 07:39:21 10° SE daylight
26 Jun - 09:38:50 10° SW 09:42:55 12° SSW 09:47:39 10° S daylight
27 Jun - 01:53:29 10° SSE 01:54:05 10° SSE 01:54:42 10° SE visible
27 Jun - 04:00:33 10° SW 04:04:30 26° S 04:10:13 10° ESE visible
27 Jun - 06:10:37 10° WSW 06:15:54 28° S 06:24:04 10° SE daylight
27 Jun - 08:22:55 10° WSW 08:28:18 17° SSW 08:35:24 10° S daylight
28 Jun - 02:48:22 10° SSW 02:51:17 19° SSE 02:54:59 10° ESE visible
28 Jun - 04:57:47 10° WSW 05:02:10 27° S 05:08:45 10° SE visible
28 Jun - 07:08:50 10° WSW 07:14:00 20° SSW 07:21:19 10° SSE daylight
29 Jun - 01:37:10 10° S 01:38:14 11° SSE 01:39:20 10° SE visible
29 Jun - 03:45:11 10° SW 03:48:44 24° S 03:53:37 10° ESE visible
29 Jun - 05:55:30 10° WSW 06:00:02 23° S 06:06:36 10° SE daylight
29 Jun - 08:09:10 10° SW 08:12:14 12° SSW 08:15:49 10° S daylight
30 Jun - 02:32:49 10° SSW 02:35:32 18° SSE 02:38:47 10° ESE visible
30 Jun - 04:42:34 10° SW 04:46:24 23° S 04:51:46 10° SE visible
30 Jun - 06:54:13 10° SW 06:58:05 15° SSW 07:03:02 10° SSE daylight
01 Jul - 01:21:00 10° S 01:22:25 12° SSE 01:23:53 10° SE night (unlit)
01 Jul - 03:29:51 10° SW 03:33:00 21° S 03:37:05 10° SE visible
01 Jul - 05:40:35 10° SW 05:44:13 18° SSW 05:49:04 10° SSE daylight
02 Jul - 02:17:16 10° SW 02:19:49 17° S 02:22:42 10° SE visible
02 Jul - 04:27:28 10° SW 04:30:39 19° S 04:34:49 10° SE visible
02 Jul - 06:41:01 10° SSW 06:42:13 10° SSW 06:43:30 10° S daylight
03 Jul - 01:04:53 10° SSW 01:06:39 13° SSE 01:08:26 10° SE night (unlit)
03 Jul - 03:14:33 10° SW 03:17:19 18° S 03:20:38 10° SE visible
03 Jul - 05:26:06 10° SW 05:28:27 13° SSW 05:31:13 10° SSE daylight
